Regional Weather Roundup
Issued by NWS Albany, NY

Home | Current Version | Previous Version | Text Only | Print | Product List | Glossary On
Versions: 1 2 3 4 5 6 7 8 9 10 11 12 13 14 15 16 17 18 19 20 21 22 23 24 25 26 27 28 29 30 31 32 33 34 35 36 37 38 39 40 41 42 43 44 45 46 47 48 49 50
234
ASUS41 KALY 030610
RWRALY

NEW YORK STATE HOURLY WEATHER ROUNDUP
NATIONAL WEATHER SERVICE ALBANY NY
200 AM EDT TUE MAY 03 2016

NOTE: "FAIR" INDICATES FEW OR NO CLOUDS BELOW 12,000 FEET WITH NO
SIGNIFICANT WEATHER AND/OR NO OBSTRUCTIONS TO VISIBILITY.

NYZ032-033-038>043-046>054-057>066-NYZ062>081-082-084-030700-
EAST


CITY           SKY/WX    TMP DP  RH WIND       PRES   REMARKS
ALBANY         CLOUDY    48  46  93 N6        29.94F
GLENS FALLS    CLOUDY    46  42  86 NE5       29.94F
POUGHKEEPSIE   LGT RAIN  52  50  93 CALM      29.92F
NEWBURGH       LGT RAIN  52  52 100 CALM      29.93F
MONTGOMERY     LGT RAIN  52  51  97 N5        29.91F FOG
WHITE PLAINS   LGT RAIN  53  51  93 NE5       29.90F
NEW YORK CITY  LGT RAIN  54  51  90 CALM      29.91S
CENTRAL PARK   LGT RAIN  53  52  96 CALM      29.93S FOG
$$

NYZ005>009-017-018-044>046-055-056-030700-
CENTRAL


CITY           SKY/WX    TMP DP  RH WIND       PRES   REMARKS
FULTON         FOG       40  37  89 CALM      29.97S VSB 1/4
SYRACUSE       MOCLDY    42  41  96 CALM      29.96F
ROME           CLOUDY    43  43 100 CALM      29.97S FOG
ELMIRA         CLOUDY    46  42  86 CALM      29.94F
BINGHAMTON     CLOUDY    43  39  86 NE6       29.92F
MONTICELLO     CLOUDY    46  46 100 CALM      29.93F
$$

NYZ026>034-041>043-087-030700-
NORTH


CITY           SKY/WX    TMP DP  RH WIND       PRES   REMARKS
WATERTOWN      FOG       37  37 100 CALM      29.96S VSB 1/4
FORT DRUM      NOT AVBL
MASSENA        FOG       36  35  96 CALM      29.97F VSB 1/4
SARANAC LAKE   CLOUDY    40  37  89 CALM      29.91F
PLATTSBURGH    NOT AVBL
$$

NYZ001>004-010>016-019>021-085-030700-
WEST


CITY           SKY/WX    TMP DP  RH WIND       PRES   REMARKS
NIAGARA FALLS  CLEAR     39  35  86 CALM      29.96S
BUFFALO        CLOUDY    41  39  93 NE5       29.95F
DUNKIRK        CLOUDY    37  36  96 CALM      29.94F
JAMESTOWN      CLOUDY    43  39  87 N5        29.91F
WELLSVILLE     CLOUDY    42  41  96 E9        29.92F FOG
ROCHESTER      CLOUDY    39  38  96 CALM      29.97F
PENN YAN       CLOUDY    39  38  96 CALM      29.96F
$$

             KEY
       WCI = WIND CHILL INDEX
       VSB = VISIBILITY
       HX  = HEAT INDEX
$$




USA.gov is the U.S. government's official web portal to all federal, state and local government web resources and services.